GW2922 Weather Reports


Display with metric or nautical units.
time (UTC)temp
F
wind
direction
speed
MPH
gust
MPH
rain 1hr
in
rain 24hr
in
rain mn
in
humidity
%
barometer
mb
20260504202146 79 20 1.0 2.0 0.00 0.00 0.00 36 1012.8
20260504201643 77 164 0.0 2.0 0.00 0.00 0.00 38 1012.8
20260504201141 78 131 0.0 2.0 0.00 0.00 0.00 38 1012.8
20260504200638 76 67 1.0 7.0 0.00 0.00 0.00 40 1012.8
20260504200134 75 53 1.0 3.0 0.00 0.00 0.00 39 1012.8
20260504195630 75 136 0.0 3.0 0.00 0.00 0.00 38 1012.8
20260504195127 76 101 1.0 2.0 0.00 0.00 0.00 38 1012.8
20260504194623 74 53 1.0 3.0 0.00 0.00 0.00 39 1012.8
20260504194119 75 109 2.0 7.0 0.00 0.00 0.00 40 1012.8
20260504193616 75 79 1.0 3.0 0.00 0.00 0.00 42 1012.8
20260504193114 75 82 2.0 3.0 0.00 0.00 0.00 41 1013.1
20260504192612 75 248 0.0 2.0 0.00 0.00 0.00 41 1012.8
20260504192110 75 20 2.0 4.0 0.00 0.00 0.00 42 1012.8
20260504191608 75 318 3.0 4.0 0.00 0.00 0.00 43 1012.8
20260504191104 74 326 3.0 4.0 0.00 0.00 0.00 42 1012.8
20260504190600 75 101 1.0 3.0 0.00 0.00 0.00 42 1012.8
20260504190056 74 112 2.0 3.0 0.00 0.00 0.00 42 1012.8
20260504185553 75 71 1.0 1.0 0.00 0.00 0.00 42 1012.8
20260504185050 75 193 2.0 3.0 0.00 0.00 0.00 42 1012.8
20260504184545 75 289 2.0 2.0 0.00 0.00 0.00 44 1012.8
20260504184041 73 115 1.0 2.0 0.00 0.00 0.00 44 1012.8
20260504183538 72 47 2.0 3.0 0.00 0.00 0.00 46 1012.8
20260504183036 71 347 4.0 7.0 0.00 0.00 0.00 46 1012.8
20260504182533 70 81 1.0 2.0 0.00 0.00 0.00 47 1012.8
20260504182030 71 232 4.0 4.0 0.00 0.00 0.00 45 1012.8
20260504181527 71 220 2.0 3.0 0.00 0.00 0.00 49 1012.8
20260504181026 70 151 1.0 2.0 0.00 0.00 0.00 50 1012.8
20260504180524 70 297 1.0 3.0 0.00 0.00 0.00 49 1012.8
20260504180023 67 32 2.0 7.0 0.00 0.00 0.00 51 1013.1
20260504175519 69 319 2.0 3.0 0.00 0.00 0.00 49 1012.8
20260504175017 68 180 1.0 6.0 0.00 0.00 0.00 50 1013.1
20260504174514 68 111 0.0 4.0 0.00 0.00 0.00 52 1012.8
20260504174011 68 89 1.0 3.0 0.00 0.00 0.00 51 1012.8
20260504173508 68 113 0.0 4.0 0.00 0.00 0.00 51 1013.1
20260504173005 68 84 2.0 2.0 0.00 0.00 0.00 53 1012.8
20260504172501 67 108 2.0 4.0 0.00 0.00 0.00 54 1012.8
20260504171957 67 47 1.0 6.0 0.00 0.00 0.00 55 1012.8
20260504171455 67 106 1.0 2.0 0.00 0.00 0.00 56 1012.8
20260504170951 66 89 0.0 2.0 0.00 0.00 0.00 56 1012.8
20260504170448 67 64 1.0 6.0 0.00 0.00 0.00 57 1012.8
20260504160408 63 29 1.0 3.0 0.00 0.00 0.00 63 1012.5
20260504150831 59 108 0.0 0.0 0.00 0.00 0.00 70 1012.1
20260504150328 59 127 0.0 0.0 0.00 0.00 0.00 71 1012.1
20260504141258 58 96 0.0 0.0 0.00 0.00 0.00 65 1011.8
20260504140755 58 95 0.0 2.0 0.00 0.00 0.00 65 1011.8
20260504140250 57 93 0.0 1.0 0.00 0.00 0.00 65 1011.8
20260504130719 53 122 0.0 0.0 0.00 0.00 0.00 71 1011.3
20260504130215 53 126 0.0 0.0 0.00 0.00 0.00 71 1011.3
20260504120139 51 141 0.0 0.0 0.00 0.00 0.00 77 1011.3
20260504110606 50 106 0.0 0.0 0.00 0.00 0.00 81 1011.8
20260504100528 51 113 0.0 0.0 0.00 0.00 0.00 79 1011.8
20260504081921 55 120 0.0 0.0 0.00 0.00 0.00 66 1011.8
20260504081418 56 121 0.0 0.0 0.00 0.00 0.00 65 1011.8
20260504080914 57 112 0.0 0.0 0.00 0.00 0.00 63 1011.8
20260504080411 57 112 0.0 0.0 0.00 0.00 0.00 62 1011.3
20260504070338 61 115 0.0 0.0 0.00 0.00 0.00 52 1012.1
20260504050715 63 179 0.0 1.0 0.00 0.00 0.00 49 1012.5
20260504050212 63 96 1.0 1.0 0.00 0.00 0.00 49 1012.5
20260504045709 63 157 0.0 1.0 0.00 0.00 0.00 48 1012.5
20260504045204 64 126 1.0 1.0 0.00 0.00 0.00 49 1012.5
20260504044702 64 205 2.0 2.0 0.00 0.00 0.00 48 1012.5
20260504044159 65 103 1.0 1.0 0.00 0.00 0.00 46 1012.5
20260504043656 65 344 1.0 1.0 0.00 0.00 0.00 47 1012.5
20260504043153 65 103 1.0 1.0 0.00 0.00 0.00 47 1012.5
20260504042650 66 111 0.0 1.0 0.00 0.00 0.00 47 1012.5
20260504042147 66 111 1.0 2.0 0.00 0.00 0.00 44 1012.5
20260504041642 66 84 1.0 1.0 0.00 0.00 0.00 45 1012.5
20260504041138 66 75 1.0 1.0 0.00 0.00 0.00 44 1012.5
20260504040636 65 293 1.0 2.0 0.00 0.00 0.00 46 1012.5
20260504040133 66 96 0.0 1.0 0.00 0.00 0.00 49 1012.5
20260504035629 66 120 0.0 1.0 0.00 0.00 0.00 49 1012.5
20260504035126 67 104 1.0 1.0 0.00 0.00 0.00 47 1012.5
20260504034624 67 69 1.0 1.0 0.00 0.00 0.00 43 1012.5
20260504034121 68 90 0.0 1.0 0.00 0.00 0.00 44 1012.1
20260504033619 68 96 0.0 1.0 0.00 0.00 0.00 43 1012.5
20260504033116 68 106 0.0 1.0 0.00 0.00 0.00 40 1012.5
20260504032612 68 105 0.0 1.0 0.00 0.00 0.00 44 1012.5
20260504032109 69 80 0.0 0.0 0.00 0.00 0.00 42 1012.5
20260504031607 69 97 1.0 1.0 0.00 0.00 0.00 40 1012.1
20260504031103 70 73 0.0 1.0 0.00 0.00 0.00 39 1012.5
20260504030600 70 106 1.0 1.0 0.00 0.00 0.00 37 1012.5
20260504030056 71 107 0.0 1.0 0.00 0.00 0.00 38 1012.1
20260504025553 71 111 1.0 1.0 0.00 0.00 0.00 36 1012.1
20260504025050 72 98 0.0 3.0 0.00 0.00 0.00 37 1012.5
20260504024547 72 76 0.0 1.0 0.00 0.00 0.00 35 1012.5
20260504024044 73 96 0.0 2.0 0.00 0.00 0.00 35 1012.5
20260504023540 73 88 1.0 2.0 0.00 0.00 0.00 34 1012.5
20260504023036 73 333 2.0 3.0 0.00 0.00 0.00 34 1012.5
20260504022532 73 60 1.0 2.0 0.00 0.00 0.00 36 1012.5
20260504022029 74 75 1.0 3.0 0.00 0.00 0.00 33 1012.5
20260504021526 74 119 1.0 4.0 0.00 0.00 0.00 34 1012.5
20260504021023 75 87 1.0 2.0 0.00 0.00 0.00 33 1012.5
20260504020520 75 108 1.0 2.0 0.00 0.00 0.00 32 1012.8
20260504020017 75 348 2.0 2.0 0.00 0.00 0.00 31 1012.5
20260504015513 76 206 1.0 2.0 0.00 0.00 0.00 31 1012.5
20260504015009 77 346 1.0 3.0 0.00 0.00 0.00 30 1012.8
20260504014505 78 256 2.0 3.0 0.00 0.00 0.00 30 1012.8
20260504014003 79 91 0.0 2.0 0.00 0.00 0.00 31 1012.8
20260504013501 78 124 0.0 1.0 0.00 0.00 0.00 32 1012.8
20260504012956 78 124 0.0 1.0 0.00 0.00 0.00 32 1012.8
20260504012455 78 107 1.0 4.0 0.00 0.00 0.00 32 1012.8
20260504011952 78 121 0.0 1.0 0.00 0.00 0.00 32 1012.8
20260504011448 78 12 1.0 2.0 0.00 0.00 0.00 32 1013.1
20260504010944 78 40 1.0 2.0 0.00 0.00 0.00 33 1013.1
20260504010440 78 62 1.0 3.0 0.00 0.00 0.00 33 1013.1
20260504005936 80 110 1.0 2.0 0.00 0.00 0.00 31 1013.5
20260504005433 78 148 1.0 2.0 0.00 0.00 0.00 33 1013.1
20260504004931 78 295 2.0 3.0 0.00 0.00 0.00 33 1013.5
20260504004429 78 166 1.0 3.0 0.00 0.00 0.00 33 1013.5
20260504003925 80 335 2.0 3.0 0.00 0.00 0.00 31 1013.5
20260504003422 78 149 1.0 2.0 0.00 0.00 0.00 33 1013.5
20260504002918 81 189 1.0 1.0 0.00 0.00 0.00 31 1013.5
20260504002415 79 100 0.0 2.0 0.00 0.00 0.00 31 1013.5
20260504001913 79 63 3.0 3.0 0.00 0.00 0.00 32 1013.5
20260504001410 79 283 2.0 6.0 0.00 0.00 0.00 32 1013.5
20260504000906 80 69 0.0 2.0 0.00 0.00 0.00 31 1013.5
20260504000404 79 311 2.0 3.0 0.00 0.00 0.00 32 1013.5
20260503235901 78 349 3.0 4.0 0.00 0.00 0.00 33 1013.5
20260503235359 78 147 2.0 3.0 0.00 0.00 0.00 33 1013.8
20260503234856 78 115 2.0 4.0 0.00 0.00 0.00 34 1013.5
20260503234354 79 150 1.0 4.0 0.00 0.00 0.00 33 1013.8
20260503233851 78 109 2.0 3.0 0.00 0.00 0.00 33 1013.8
20260503233347 80 76 3.0 6.0 0.00 0.00 0.00 32 1013.8
20260503232844 79 20 1.0 3.0 0.00 0.00 0.00 33 1013.8
20260503232341 80 322 2.0 2.0 0.00 0.00 0.00 31 1014.1
20260503231839 79 188 1.0 2.0 0.00 0.00 0.00 32 1014.1
20260503231335 78 113 0.0 2.0 0.00 0.00 0.00 32 1014.1
20260503230826 77 350 3.0 6.0 0.00 0.00 0.00 34 1014.1
20260503230323 77 191 3.0 6.0 0.00 0.00 0.00 34 1014.1
20260503225821 78 103 4.0 7.0 0.00 0.00 0.00 34 1014.1
20260503225316 80 135 2.0 4.0 0.00 0.00 0.00 34 1014.1
20260503224813 78 123 0.0 2.0 0.00 0.00 0.00 34 1014.5
20260503224310 78 190 1.0 3.0 0.00 0.00 0.00 34 1014.5
20260503223808 78 39 2.0 3.0 0.00 0.00 0.00 34 1014.5
20260503223305 77 319 2.0 4.0 0.00 0.00 0.00 35 1014.5
20260503222801 77 176 2.0 3.0 0.00 0.00 0.00 35 1014.5
20260503222300 76 323 2.0 6.0 0.00 0.00 0.00 36 1014.8
20260503221757 77 209 2.0 6.0 0.00 0.00 0.00 36 1014.8
20260503221255 77 265 1.0 3.0 0.00 0.00 0.00 36 1014.8
20260503220751 78 246 0.0 4.0 0.00 0.00 0.00 35 1014.8
20260503220248 78 134 2.0 4.0 0.00 0.00 0.00 34 1014.8
20260503215745 77 122 0.0 3.0 0.00 0.00 0.00 33 1015.2
20260503215242 77 38 2.0 3.0 0.00 0.00 0.00 34 1014.8
20260503214740 76 62 2.0 6.0 0.00 0.00 0.00 36 1015.2
20260503214237 77 70 2.0 3.0 0.00 0.00 0.00 36 1015.2
20260503213735 76 129 1.0 4.0 0.00 0.00 0.00 36 1015.2
20260503213232 75 81 1.0 7.0 0.00 0.00 0.00 37 1015.2
20260503212729 75 8 2.0 7.0 0.00 0.00 0.00 37 1015.2
20260503212226 75 21 2.0 9.0 0.00 0.00 0.00 39 1015.2
20260503211724 74 312 2.0 4.0 0.00 0.00 0.00 38 1015.2
20260503211220 74 36 3.0 4.0 0.00 0.00 0.00 39 1015.5
20260503210715 75 65 1.0 4.0 0.00 0.00 0.00 39 1015.5
20260503210213 75 328 2.0 4.0 0.00 0.00 0.00 40 1015.5
20260503205708 76 58 2.0 4.0 0.00 0.00 0.00 38 1015.5
20260503205205 74 16 3.0 8.0 0.00 0.00 0.00 39 1015.5
20260503204701 74 84 1.0 6.0 0.00 0.00 0.00 39 1015.5
20260503204159 74 47 1.0 7.0 0.00 0.00 0.00 37 1015.5
20260503203656 75 33 4.0 7.0 0.00 0.00 0.00 37 1015.2
20260503203154 76 142 1.0 4.0 0.00 0.00 0.00 36 1015.5
20260503202650 75 129 0.0 3.0 0.00 0.00 0.00 36 1015.5